SCP
-0 0 0 -0 -0 -0 -0 0 0 0 0 0 0 0 0 0 0 0 0 0 0 0 0 0 0 0 0 0 0 0 0 0 0 0 0 0 0 0 0 0 0 0 0 0
-0 -0 -0 -0 -0 -0 -0 0 -0 -0 -0 0 0 0 0 0 0 0 0 0 0 0 0 0 0 0 0 0 0 0 0 0 0 0 0 0 0 0 0 0 0 0 0 0
0 -0 0 -0 -0 -0 0 0 0 0 0 0 0 0 0 0 0 0 0 0 0 0 0 0 0 0 0 0 -0 0 0 0 0 0 0 0 0 0 0 0 0 0 0 0
0 -0 -0 0 0 0 0 -0 -0 0 0 0 0 0 0 0 0 0 0 0 0 0 -0 0 -0 0 0 0 0 0 0 0 0 0 0 0 0 0 0 0 0 0 0 0
0 0 0 0 0 0 0 -0 -0 0 0 0 0 0 0 0 0 0 0 0 0 -0 -0 0 0 0 0 0 0 0 0 0 0 0 0 0 0 0 0 0 0 0 0 0
0 -0 0 0 0 0 0 0 -0 0 0 0 0 0 0 0 0 0 0 0 0 0 0 0 0 0 0 0 0 0 0 0 0 0 0 0 0 0 0 0 0 0 0 0
0 0 0 0 0 0 0 0 0 0 0 0 0 0 0 0 0 0 0 0 0 0 0 0 0 0 0 0 0 0 0 0 0 0 0 0 0 0 0 0 0 0 0 0
0 0 0 0 -0 0 -0 0 0 0 0 0 0 0 0 0 0 0 0 0 0 0 0 0 0 0 0 0 0 0 0 0 0 0 0 0 0 0 0 0 0 0 0 0
-0 0 0 0 0 -0 0 -0 -0 -0 0 0 0 0 0 0 0 0 0 0 0 0 0 0 0 0 0 0 0 0 0 0 0 0 0 0 0 0 0 0 0 0 0 0
0 0 -0 -0 -0 -0 0 0 0 0 0 0 0 -0 -0 0 0 0 0 0 0 0 0 0 0 0 0 0 0 0 0 0 0 0 0 0 0 0 0 0 0 0 0 0
0 -0 -0 -0 -0 -0 0 0 0 0 0 0 0 0 0 0 0 0 0 0 0 0 0 0 0 0 0 0 0 0 0 0 0 0 0 0 0 0 0 0 0 0 0 0
0 0 0 0 0 0 0 0 0 0 0 0 0 0 0 0 0 0 0 0 0 0 0 0 0 0 0 0 0 0 0 0 0 0 0 0 0 0 0 0 0 0 0 0
-0 0 0 0 0 0 0 0 0 0 0 0 0 0 0 0 0 0 0 0 0 0 0 0 0 0 0 0 0 0 0 0 0 0 0 0 0 0 0 0 0 0 0 0
-0 -0 -0 -0 0 -0 -0 0 0 0 0 0 0 0 0 0 0 0 0 0 0 0 0 0 0 0 0 0 0 0 0 0 0 0 0 0 0 0 0 0 0 0 0 0
0 -0 -0 0 0 0 0 0 -0 0 0 0 0 0 0 0 0 0 0 0 0 0 0 0 0 0 0 0 0 0 0 0 0 0 0 0 0 0 0 0 0 0 0 0
0 0 0 0 0 0 0 0 -0 -0 0 0 0 0 0 0 0 0 0 0 0 0 0 0 0 0 0 0 0 0 0 0 0 0 0 0 0 0 0 0 0 0 0 0
0 0 0 0 -0 0 0 -0 -0 -0 -0 -0 -0 -0 -0 -0 0 0 0 -0 -0 0 0 -0 0 0 0 -0 -0 -0 -0 -0 -0 0 0 0 0 0 0 0 0 0 0 0
0 0 0 -0 -0 -0 0 0 0 0 0 0 -0 -0 -0 -0 -0 -0 -0 -0 -0 -0 -0 0 0 0 0 0 0 -0 -0 -0 0 0 0 0 0 -0 -0 -0 -0 -0 -0 -0
0 0 0 0 0 -0 0 0 0 0 0 0 -0 -0 -0 -0 -0 -0 -0 -0 -0 -0 -0 -0 0 -0 -0 -0 0 0 0 0 0 0 0 0 0 0 0 0 0 0 0 0
0 0 0 -0 -0 0 0 0 0 0 0 0 0 0 0 0 0 0 0 -0 0 0 -0 -0 -0 -0 0 0 0 0 0 0 0 0 0 0 0 0 0 0 0 0 0 0
0 -0 -0 -0 -0 -0 -0 0 0 0 0 0 0 0 0 0 0 0 0 0 0 0 0 0 0 0 0 0 0 0 0 0 0 0 0 0 0 0 0 0 0 0 0 0
-0 -0 -0 -0 -0 -0 0 0 0 0 0 0 0 0 0 0 0 0 0 0 0 0 0 0 0 0 0 0 0 0 0 0 0 0 0 0 0 0 0 0 0 0 0 0
0 0 0 0 0 0 0 0 0 0 0 0 0 0 0 0 0 0 0 0 0 0 0 0 0 0 0 0 0 0 0 0 0 0 0 0 0 0 0 0 0 0 0 0
0 0 0 0 0 0 0 0 0 0 0 0 0 0 0 0 0 0 0 0 0 0 0 0 0 0 0 0 0 0 0 0 0 0 0 0 0 0 0 0 0 0 0 0
0 0 0 0 0 0 0 0 0 0 0 0 0 0 0 0 0 0 0 0 0 0 0 0 0 0 0 0 0 0 0 0 0 0 0 0 0 0 0 0 0 0 0 0
0 0 0 0 0 0 0 0 0 0 0 0 0 0 0 0 0 0 0 0 0 0 0 0 0 0 0 0 0 0 0 0 0 0 0 0 0 0 0 0 0 0 0 0
0 0 0 0 0 0 0 0 0 0 0 0 0 0 0 0 0 0 0 0 0 0 0 0 0 0 0 0 0 0 0 0 0 0 0 0 0 0 0 0 0 0 0 0
Wind_Speed_500mb
18 12 18 33 36 40 24 3 12 16 21 13 12 13 16 18 19 21 21 19 11 10 11 10 11 11 11 9 9 11 10 10 6 5 8 7 5 5 3 5 6 6 10 12
12 21 31 33 45 36 27 21 22 23 20 8 24 29 28 21 19 19 17 17 14 13 10 11 11 11 12 12 11 10 5 7 8 10 12 9 11 14 11 12 11 12 12 12
10 18 11 20 26 26 9 15 4 13 6 5 16 25 25 18 17 19 17 18 18 15 13 13 12 14 15 17 15 15 13 15 15 15 15 15 16 18 17 16 15 16 16 17
4 12 15 9 16 12 15 23 22 20 11 18 25 29 30 24 21 20 17 16 16 14 12 13 13 15 15 17 16 18 17 18 16 16 14 14 13 13 13 13 13 12 12 13
8 5 4 8 13 9 10 12 12 11 10 20 23 22 28 23 20 19 17 15 15 15 15 14 16 16 16 15 15 16 15 16 16 15 13 12 10 10 11 10 12 11 10 12
9 12 6 6 9 11 7 8 15 10 10 11 12 8 5 12 17 20 18 16 15 15 15 15 15 16 15 13 13 13 14 14 13 12 12 12 11 11 11 10 8 10 8 8
7 6 11 10 16 12 11 6 7 4 9 10 6 8 16 15 18 19 19 18 17 15 13 14 13 15 13 11 12 12 13 12 11 11 10 10 9 8 8 6 6 7 8 8
5 11 6 9 12 5 2 3 5 10 10 11 27 24 21 21 21 21 19 17 15 14 12 10 11 12 11 10 11 11 11 9 8 6 6 6 4 3 2 2 4 5 6 7
8 9 6 2 8 8 12 13 8 14 24 29 30 25 20 21 22 22 21 19 17 13 10 8 5 5 5 7 8 9 8 6 5 3 3 2 3 4 5 5 7 8 10 11
8 6 8 6 9 11 12 18 20 26 25 21 25 26 21 18 17 16 16 14 14 13 10 6 3 3 5 6 7 4 3 3 4 3 5 7 8 8 10 10 12 14 15 15
7 12 11 10 12 3 7 11 14 16 16 17 14 15 15 13 11 10 10 11 11 12 13 12 10 8 8 9 10 11 11 9 6 6 10 12 11 11 13 17 19 20 22 24
8 6 6 1 12 12 9 9 11 12 13 15 14 12 10 5 4 8 9 10 12 13 14 14 14 13 13 14 15 17 19 21 22 23 21 20 19 21 21 22 23 24 25 26
3 10 6 15 16 12 8 10 13 15 15 19 18 17 15 12 10 8 10 13 16 18 19 21 22 20 21 21 21 21 21 22 29 32 32 32 28 26 25 27 30 33 36 37
10 11 8 14 6 8 6 4 5 5 11 23 22 24 23 18 16 17 21 23 26 31 34 35 35 29 35 38 38 36 36 35 35 33 36 38 37 36 32 38 42 41 42 44
23 20 14 10 16 15 10 7 5 8 6 9 21 26 23 21 22 23 25 31 36 35 35 37 38 35 43 48 47 46 44 42 40 40 40 41 42 41 40 43 43 45 46 44
23 26 21 19 19 16 17 12 6 8 9 4 4 10 16 17 21 27 29 30 30 27 30 35 37 41 43 44 45 46 46 45 44 44 43 44 44 47 50 50 50 49 44 34
15 17 20 20 21 23 22 20 15 11 10 10 12 16 18 19 18 15 11 12 16 20 25 29 29 32 36 38 40 41 41 41 42 44 45 42 42 42 41 44 46 44 40 38
19 12 15 10 4 13 20 17 16 13 9 6 13 15 14 10 7 7 12 15 19 25 30 31 30 31 32 33 33 34 35 38 40 39 40 42 41 42 44 47 47 47 43 43
35 32 20 7 6 14 19 21 19 16 8 12 15 12 10 11 14 18 21 26 33 34 38 40 39 35 31 30 30 32 34 35 37 38 39 41 42 44 46 47 47 48 49 49
25 39 35 20 15 21 24 25 19 12 14 19 11 11 15 20 25 29 34 38 43 46 50 47 43 37 33 30 28 27 27 28 30 33 38 40 41 43 44 45 46 46 47 48
20 27 33 35 26 22 18 13 13 16 11 9 12 17 23 29 33 38 42 47 51 51 48 44 38 34 30 30 30 29 26 25 24 26 28 32 35 37 39 41 43 44 44 44
27 34 35 30 20 11 10 8 6 8 12 17 21 25 29 34 40 46 48 47 46 42 36 28 24 24 25 26 25 25 25 25 26 26 27 29 30 31 33 34 35 37 38 40
29 29 26 21 16 10 6 6 11 16 20 26 31 36 40 40 39 36 34 31 29 26 25 22 20 20 21 21 21 20 21 21 22 24 25 26 27 28 30 31 33 34 35 37
23 21 17 14 10 4 2 8 15 22 27 31 33 34 34 32 29 23 22 22 21 21 21 21 20 20 21 22 21 21 21 21 21 22 22 23 25 26 27 28 30 32 33 34
21 18 13 8 3 3 11 18 23 26 29 31 29 26 25 23 22 22 22 22 21 20 18 17 16 15 15 15 16 17 19 20 21 22 23 23 23 24 24 25 25 25 26 27
18 12 6 1 6 13 20 24 26 27 27 27 25 21 19 18 18 17 17 15 14 14 13 13 13 14 15 16 16 17 17 17 17 17 18 18 18 19 19 20 21 21 22 24
12 6 6 11 16 23 28 29 29 27 25 23 20 17 15 14 13 11 9 9 9 10 12 15 16 18 20 21 21 21 21 21 21 21 21 21 22 23 24 25 25 27 27 28
Wind_Direction_500mb
62 32 51 54 32 39 57 9 76 98 80 59 56 73 90 99 89 100 114 124 129 121 114 106 119 126 132 138 153 171 191 210 224 289 327 329 272 274 226 187 172 171 184 184
24 4 42 50 24 23 37 46 70 86 69 32 89 97 88 95 100 101 104 107 100 95 95 92 93 102 111 114 102 89 105 144 162 159 141 138 139 139 139 144 135 137 146 151
336 346 16 34 0 359 15 13 128 74 93 84 60 53 52 67 77 85 88 91 90 85 87 95 97 97 93 93 98 103 109 103 105 105 111 125 128 132 135 133 135 133 135 132
293 354 44 317 311 260 36 35 50 72 58 64 89 80 65 68 84 86 85 92 98 101 105 103 98 91 96 103 109 106 105 104 106 109 113 116 121 126 125 133 127 130 133 136
86 45 307 342 356 9 20 7 15 76 65 90 100 78 52 57 71 83 87 94 105 110 107 103 99 94 91 93 93 95 104 106 111 112 110 115 115 106 105 110 118 123 131 140
38 86 107 260 314 346 314 16 1 111 117 130 3 53 316 69 87 93 96 94 91 94 94 94 95 95 93 96 102 104 98 94 99 103 101 96 93 94 96 100 112 118 130 142
42 91 299 273 307 350 62 244 15 82 136 147 54 95 119 98 95 94 95 94 91 88 87 94 96 94 92 93 84 77 77 81 86 89 92 90 89 96 101 117 133 145 153 162
54 60 346 341 331 124 254 26 90 117 129 119 115 114 110 104 98 96 92 91 91 93 88 85 89 94 95 88 87 88 87 88 87 87 87 86 81 82 123 165 181 177 168 178
159 202 242 312 75 97 117 114 101 125 124 125 123 120 111 99 93 89 85 83 84 82 86 88 92 114 124 111 103 92 91 82 74 64 47 346 270 243 225 227 227 215 210 221
54 279 239 160 126 97 100 99 99 117 121 126 131 129 121 107 94 81 64 46 38 39 39 46 83 188 206 204 176 147 101 56 24 331 322 306 285 269 259 244 242 242 245 254
273 279 288 255 215 149 105 120 121 131 129 135 134 123 111 100 80 55 38 24 10 354 342 342 339 322 302 269 257 251 247 250 271 291 295 292 290 281 272 266 264 259 256 261
225 190 118 25 193 189 178 184 177 175 171 165 155 144 141 129 19 346 353 347 342 344 336 325 314 310 302 297 289 277 270 262 255 254 252 262 271 272 280 274 277 279 278 279
107 163 115 127 110 125 178 218 232 228 214 209 208 216 225 243 268 294 297 304 307 310 307 298 290 284 279 281 285 289 290 277 265 259 258 259 257 264 268 269 278 284 283 283
146 147 143 172 170 180 180 239 242 262 248 238 236 234 240 252 261 271 278 281 288 294 296 287 276 271 274 274 274 278 279 278 277 274 264 257 257 254 260 274 282 287 289 285
195 200 210 203 223 218 223 224 268 253 266 260 240 232 237 252 267 275 281 288 293 292 286 281 278 275 268 271 274 274 273 273 273 270 266 262 258 255 264 266 269 275 277 280
208 219 222 228 228 229 223 213 277 256 227 226 197 221 237 250 269 283 292 297 298 298 294 292 286 276 272 273 274 275 273 270 267 267 265 262 260 259 259 264 269 273 276 277
168 190 209 221 233 233 222 237 262 222 210 234 255 263 266 271 280 289 305 326 333 327 322 317 302 292 286 281 279 277 272 268 267 265 265 266 261 260 263 265 270 272 271 263
172 163 165 158 182 204 198 204 196 188 204 257 281 273 271 266 259 280 297 311 322 324 325 322 316 312 297 292 288 283 279 275 270 268 263 260 259 256 254 255 258 263 263 260
230 205 189 172 156 159 174 176 177 177 212 307 289 266 255 253 269 281 289 297 303 309 313 313 311 304 299 291 287 287 284 279 274 269 265 261 260 262 263 265 267 269 270 269
185 197 203 204 173 149 155 162 176 210 275 300 268 261 267 273 280 285 290 295 301 304 306 305 301 295 289 291 288 289 293 291 285 280 276 275 275 274 275 275 277 279 281 284
169 178 177 173 165 165 174 202 244 272 273 274 277 280 284 288 292 296 298 299 301 301 302 305 304 297 290 290 292 291 291 292 288 284 281 280 279 278 278 280 282 285 287 288
131 152 160 166 175 208 233 236 243 273 287 291 292 293 294 297 299 301 301 301 303 303 302 299 294 290 289 291 295 301 300 299 300 300 298 296 294 293 292 291 291 291 292 293
124 132 143 153 162 173 209 272 296 302 305 306 306 306 305 304 305 307 306 309 310 312 316 317 313 310 304 297 292 293 294 296 296 295 295 295 296 296 296 297 298 300 300 301
142 138 138 140 141 148 299 317 317 315 313 313 313 313 313 315 317 321 322 322 325 328 331 330 323 313 305 301 299 298 300 302 303 303 303 303 303 304 304 306 307 309 311 313
144 135 134 136 150 303 317 323 321 318 314 312 313 312 313 314 316 320 322 325 327 330 335 337 336 335 332 331 330 328 328 327 326 326 325 324 324 324 324 325 325 326 327 327
147 144 150 225 310 318 320 318 317 319 314 313 314 314 315 315 317 321 326 334 341 347 349 353 357 1 5 7 8 8 7 8 8 8 8 7 6 3 0 358 355 352 349 347
165 200 270 299 313 318 319 319 318 318 313 310 310 315 317 318 322 331 346 4 16 27 35 40 43 45 45 45 43 43 42 40 37 33 28 22 16 10 4 359 354 350 346 342
Wind_Speed_850mb
18 12 18 33 36 40 24 3 12 16 21 13 12 13 16 18 19 21 21 19 11 10 11 10 11 11 11 9 9 11 10 10 6 5 8 7 5 5 3 5 6 6 10 12
12 21 31 33 45 36 27 21 22 23 20 8 24 29 28 21 19 19 17 17 14 13 10 11 11 11 12 12 11 10 5 7 8 10 12 9 11 14 11 12 11 12 12 12
10 18 11 20 26 26 9 15 4 13 6 5 16 25 25 18 17 19 17 18 18 15 13 13 12 14 15 17 15 15 13 15 15 15 15 15 16 18 17 16 15 16 16 17
4 12 15 9 16 12 15 23 22 20 11 18 25 29 30 24 21 20 17 16 16 14 12 13 13 15 15 17 16 18 17 18 16 16 14 14 13 13 13 13 13 12 12 13
8 5 4 8 13 9 10 12 12 11 10 20 23 22 28 23 20 19 17 15 15 15 15 14 16 16 16 15 15 16 15 16 16 15 13 12 10 10 11 10 12 11 10 12
9 12 6 6 9 11 7 8 15 10 10 11 12 8 5 12 17 20 18 16 15 15 15 15 15 16 15 13 13 13 14 14 13 12 12 12 11 11 11 10 8 10 8 8
7 6 11 10 16 12 11 6 7 4 9 10 6 8 16 15 18 19 19 18 17 15 13 14 13 15 13 11 12 12 13 12 11 11 10 10 9 8 8 6 6 7 8 8
5 11 6 9 12 5 2 3 5 10 10 11 27 24 21 21 21 21 19 17 15 14 12 10 11 12 11 10 11 11 11 9 8 6 6 6 4 3 2 2 4 5 6 7
8 9 6 2 8 8 12 13 8 14 24 29 30 25 20 21 22 22 21 19 17 13 10 8 5 5 5 7 8 9 8 6 5 3 3 2 3 4 5 5 7 8 10 11
8 6 8 6 9 11 12 18 20 26 25 21 25 26 21 18 17 16 16 14 14 13 10 6 3 3 5 6 7 4 3 3 4 3 5 7 8 8 10 10 12 14 15 15
7 12 11 10 12 3 7 11 14 16 16 17 14 15 15 13 11 10 10 11 11 12 13 12 10 8 8 9 10 11 11 9 6 6 10 12 11 11 13 17 19 20 22 24
8 6 6 1 12 12 9 9 11 12 13 15 14 12 10 5 4 8 9 10 12 13 14 14 14 13 13 14 15 17 19 21 22 23 21 20 19 21 21 22 23 24 25 26
3 10 6 15 16 12 8 10 13 15 15 19 18 17 15 12 10 8 10 13 16 18 19 21 22 20 21 21 21 21 21 22 29 32 32 32 28 26 25 27 30 33 36 37
10 11 8 14 6 8 6 4 5 5 11 23 22 24 23 18 16 17 21 23 26 31 34 35 35 29 35 38 38 36 36 35 35 33 36 38 37 36 32 38 42 41 42 44
23 20 14 10 16 15 10 7 5 8 6 9 21 26 23 21 22 23 25 31 36 35 35 37 38 35 43 48 47 46 44 42 40 40 40 41 42 41 40 43 43 45 46 44
23 26 21 19 19 16 17 12 6 8 9 4 4 10 16 17 21 27 29 30 30 27 30 35 37 41 43 44 45 46 46 45 44 44 43 44 44 47 50 50 50 49 44 34
15 17 20 20 21 23 22 20 15 11 10 10 12 16 18 19 18 15 11 12 16 20 25 29 29 32 36 38 40 41 41 41 42 44 45 42 42 42 41 44 46 44 40 38
19 12 15 10 4 13 20 17 16 13 9 6 13 15 14 10 7 7 12 15 19 25 30 31 30 31 32 33 33 34 35 38 40 39 40 42 41 42 44 47 47 47 43 43
35 32 20 7 6 14 19 21 19 16 8 12 15 12 10 11 14 18 21 26 33 34 38 40 39 35 31 30 30 32 34 35 37 38 39 41 42 44 46 47 47 48 49 49
25 39 35 20 15 21 24 25 19 12 14 19 11 11 15 20 25 29 34 38 43 46 50 47 43 37 33 30 28 27 27 28 30 33 38 40 41 43 44 45 46 46 47 48
20 27 33 35 26 22 18 13 13 16 11 9 12 17 23 29 33 38 42 47 51 51 48 44 38 34 30 30 30 29 26 25 24 26 28 32 35 37 39 41 43 44 44 44
27 34 35 30 20 11 10 8 6 8 12 17 21 25 29 34 40 46 48 47 46 42 36 28 24 24 25 26 25 25 25 25 26 26 27 29 30 31 33 34 35 37 38 40
29 29 26 21 16 10 6 6 11 16 20 26 31 36 40 40 39 36 34 31 29 26 25 22 20 20 21 21 21 20 21 21 22 24 25 26 27 28 30 31 33 34 35 37
23 21 17 14 10 4 2 8 15 22 27 31 33 34 34 32 29 23 22 22 21 21 21 21 20 20 21 22 21 21 21 21 21 22 22 23 25 26 27 28 30 32 33 34
21 18 13 8 3 3 11 18 23 26 29 31 29 26 25 23 22 22 22 22 21 20 18 17 16 15 15 15 16 17 19 20 21 22 23 23 23 24 24 25 25 25 26 27
18 12 6 1 6 13 20 24 26 27 27 27 25 21 19 18 18 17 17 15 14 14 13 13 13 14 15 16 16 17 17 17 17 17 18 18 18 19 19 20 21 21 22 24
12 6 6 11 16 23 28 29 29 27 25 23 20 17 15 14 13 11 9 9 9 10 12 15 16 18 20 21 21 21 21 21 21 21 21 21 22 23 24 25 25 27 27 28
Wind_Direction_850mb
62 32 51 54 32 39 57 9 76 98 80 59 56 73 90 99 89 100 114 124 129 121 114 106 119 126 132 138 153 171 191 210 224 289 327 329 272 274 226 187 172 171 184 184
24 4 42 50 24 23 37 46 70 86 69 32 89 97 88 95 100 101 104 107 100 95 95 92 93 102 111 114 102 89 105 144 162 159 141 138 139 139 139 144 135 137 146 151
336 346 16 34 0 359 15 13 128 74 93 84 60 53 52 67 77 85 88 91 90 85 87 95 97 97 93 93 98 103 109 103 105 105 111 125 128 132 135 133 135 133 135 132
293 354 44 317 311 260 36 35 50 72 58 64 89 80 65 68 84 86 85 92 98 101 105 103 98 91 96 103 109 106 105 104 106 109 113 116 121 126 125 133 127 130 133 136
86 45 307 342 356 9 20 7 15 76 65 90 100 78 52 57 71 83 87 94 105 110 107 103 99 94 91 93 93 95 104 106 111 112 110 115 115 106 105 110 118 123 131 140
38 86 107 260 314 346 314 16 1 111 117 130 3 53 316 69 87 93 96 94 91 94 94 94 95 95 93 96 102 104 98 94 99 103 101 96 93 94 96 100 112 118 130 142
42 91 299 273 307 350 62 244 15 82 136 147 54 95 119 98 95 94 95 94 91 88 87 94 96 94 92 93 84 77 77 81 86 89 92 90 89 96 101 117 133 145 153 162
54 60 346 341 331 124 254 26 90 117 129 119 115 114 110 104 98 96 92 91 91 93 88 85 89 94 95 88 87 88 87 88 87 87 87 86 81 82 123 165 181 177 168 178
159 202 242 312 75 97 117 114 101 125 124 125 123 120 111 99 93 89 85 83 84 82 86 88 92 114 124 111 103 92 91 82 74 64 47 346 270 243 225 227 227 215 210 221
54 279 239 160 126 97 100 99 99 117 121 126 131 129 121 107 94 81 64 46 38 39 39 46 83 188 206 204 176 147 101 56 24 331 322 306 285 269 259 244 242 242 245 254
273 279 288 255 215 149 105 120 121 131 129 135 134 123 111 100 80 55 38 24 10 354 342 342 339 322 302 269 257 251 247 250 271 291 295 292 290 281 272 266 264 259 256 261
225 190 118 25 193 189 178 184 177 175 171 165 155 144 141 129 19 346 353 347 342 344 336 325 314 310 302 297 289 277 270 262 255 254 252 262 271 272 280 274 277 279 278 279
107 163 115 127 110 125 178 218 232 228 214 209 208 216 225 243 268 294 297 304 307 310 307 298 290 284 279 281 285 289 290 277 265 259 258 259 257 264 268 269 278 284 283 283
146 147 143 172 170 180 180 239 242 262 248 238 236 234 240 252 261 271 278 281 288 294 296 287 276 271 274 274 274 278 279 278 277 274 264 257 257 254 260 274 282 287 289 285
195 200 210 203 223 218 223 224 268 253 266 260 240 232 237 252 267 275 281 288 293 292 286 281 278 275 268 271 274 274 273 273 273 270 266 262 258 255 264 266 269 275 277 280
208 219 222 228 228 229 223 213 277 256 227 226 197 221 237 250 269 283 292 297 298 298 294 292 286 276 272 273 274 275 273 270 267 267 265 262 260 259 259 264 269 273 276 277
168 190 209 221 233 233 222 237 262 222 210 234 255 263 266 271 280 289 305 326 333 327 322 317 302 292 286 281 279 277 272 268 267 265 265 266 261 260 263 265 270 272 271 263
172 163 165 158 182 204 198 204 196 188 204 257 281 273 271 266 259 280 297 311 322 324 325 322 316 312 297 292 288 283 279 275 270 268 263 260 259 256 254 255 258 263 263 260
230 205 189 172 156 159 174 176 177 177 212 307 289 266 255 253 269 281 289 297 303 309 313 313 311 304 299 291 287 287 284 279 274 269 265 261 260 262 263 265 267 269 270 269
185 197 203 204 173 149 155 162 176 210 275 300 268 261 267 273 280 285 290 295 301 304 306 305 301 295 289 291 288 289 293 291 285 280 276 275 275 274 275 275 277 279 281 284
169 178 177 173 165 165 174 202 244 272 273 274 277 280 284 288 292 296 298 299 301 301 302 305 304 297 290 290 292 291 291 292 288 284 281 280 279 278 278 280 282 285 287 288
131 152 160 166 175 208 233 236 243 273 287 291 292 293 294 297 299 301 301 301 303 303 302 299 294 290 289 291 295 301 300 299 300 300 298 296 294 293 292 291 291 291 292 293
124 132 143 153 162 173 209 272 296 302 305 306 306 306 305 304 305 307 306 309 310 312 316 317 313 310 304 297 292 293 294 296 296 295 295 295 296 296 296 297 298 300 300 301
142 138 138 140 141 148 299 317 317 315 313 313 313 313 313 315 317 321 322 322 325 328 331 330 323 313 305 301 299 298 300 302 303 303 303 303 303 304 304 306 307 309 311 313
144 135 134 136 150 303 317 323 321 318 314 312 313 312 313 314 316 320 322 325 327 330 335 337 336 335 332 331 330 328 328 327 326 326 325 324 324 324 324 325 325 326 327 327
147 144 150 225 310 318 320 318 317 319 314 313 314 314 315 315 317 321 326 334 341 347 349 353 357 1 5 7 8 8 7 8 8 8 8 7 6 3 0 358 355 352 349 347
165 200 270 299 313 318 319 319 318 318 313 310 310 315 317 318 322 331 346 4 16 27 35 40 43 45 45 45 43 43 42 40 37 33 28 22 16 10 4 359 354 350 346 342